Saginaw, MI

7:57 PM EST on December 12, 2017 (GMT -0500)
MBS International

Weather History for KMBS - March, 2012

Change the Weather History Date:

Friday, March 9, 2012

  Actual Average Record
Temperature  
Mean Temperature 27 °F 31 °F  
Max Temperature 33 °F 39 °F 67 °F (2016)
Min Temperature 21 °F 23 °F -2 °F (2003)
Degree Days  
Heating Degree Days 38    
Month to date heating degree days  
Since 1 July heating degree days  
Cooling Degree Days 0    
Month to date cooling degree days  
Year to date cooling degree days  
Moisture  
Dew Point 18 °F    
Average Humidity 65    
Maximum Humidity 86    
Minimum Humidity 40    
Precipitation  
Precipitation 0.00 in 0.07 in 0.98 in (1998)
Month to date precipitation 0.62  
Year to date precipitation 3.94  
Snow  
Snow 0.00 in - - ()
Month to date snowfall  
Since 1 July snowfall  
Snow Depth -    
Sea Level Pressure  
Sea Level Pressure 30.27 in    
Wind  
Wind Speed 14 mph (WNW)    
Max Wind Speed 24 mph    
Max Gust Speed 32 mph    
Visibility 8 miles    
Events Snow    
T = Trace of Precipitation, MM = Missing Value Source: NWS Daily Summary

Daily Weather History Graph

Daily Weather History Graph

Search for Another Location

Airport or City:

Trip Planner

Search our weather history database for the weather conditions in past years. The results will help you decide how hot, cold, wet, or windy it might be!

Date:

Astronomy

Mar. 09, 2012 Rise Set
Actual Time 6:58 AM EST 6:35 PM EST
Civil Twilight 6:29 AM EST 7:04 PM EST
Nautical Twilight 5:56 AM EST 7:37 PM EST
Astronomical Twilight 5:23 AM EST 8:11 PM EST
Moon 8:40 PM EST (3/9) 7:11 AM EST (3/9)
Length of Visible Light 12h 34m
Length of Day
11h 37m
Full, 98% of the Moon is Illuminated
Mar 9
Full
Mar 14
Last Quarter
Mar 22
New
Mar 30
First Quarter
Apr 6
Full

Hourly Weather History & Observations

Time (EST) Temp. Windchill Dew Point Humidity Pressure Visibility Wind Dir Wind Speed Gust Speed Precip Events Conditions
12:53 AM 30.9 °F 24.3 °F 23.0 °F 72% 30.07 in 10.0 mi SW 6.9 mph - N/A   Partly Cloudy
1:53 AM 32.0 °F 23.6 °F 24.1 °F 73% 30.08 in 10.0 mi SW 10.4 mph - N/A   Overcast
2:53 AM 32.0 °F 24.2 °F 25.0 °F 75% 30.06 in 9.0 mi WSW 9.2 mph - 0.00 in   Overcast
3:11 AM 32.0 °F 22.1 °F 26.6 °F 80% 30.05 in 1.8 mi West 13.8 mph 18.4 mph 0.00 in Snow Light Snow
3:19 AM 30.2 °F 18.9 °F 26.6 °F 86% 30.05 in 1.8 mi WSW 16.1 mph - 0.00 in Snow Light Snow
3:21 AM 30.2 °F 18.9 °F 26.6 °F 86% 30.05 in 3.0 mi WSW 16.1 mph - 0.00 in Snow Light Snow
3:26 AM 30.2 °F 19.3 °F 26.6 °F 86% 30.05 in 2.0 mi West 15.0 mph - 0.00 in Snow Light Snow
3:31 AM 30.2 °F 18.9 °F 26.6 °F 86% 30.06 in 1.0 mi West 16.1 mph - 0.00 in Snow Light Snow
3:37 AM 30.2 °F 20.2 °F 26.6 °F 86% 30.06 in 2.5 mi West 12.7 mph - 0.00 in Snow Light Snow
3:44 AM 30.2 °F 20.8 °F 26.6 °F 86% 30.06 in 9.0 mi West 11.5 mph - 0.00 in   Mostly Cloudy
3:53 AM 30.0 °F 21.7 °F 26.1 °F 85% 30.09 in 10.0 mi West 9.2 mph - 0.00 in   Mostly Cloudy
4:53 AM 30.0 °F 19.5 °F 23.0 °F 75% 30.11 in 10.0 mi West 13.8 mph - N/A   Clear
5:53 AM 30.0 °F 20.0 °F 21.9 °F 72% 30.13 in 10.0 mi WNW 12.7 mph - N/A   Clear
6:53 AM 28.9 °F 16.5 °F 21.0 °F 72% 30.17 in 10.0 mi West 18.4 mph - N/A   Clear
7:53 AM 30.0 °F 18.3 °F 21.0 °F 69% 30.20 in 10.0 mi WNW 17.3 mph 26.5 mph N/A   Clear
8:53 AM 30.0 °F 18.7 °F 19.9 °F 66% 30.24 in 10.0 mi WNW 16.1 mph 28.8 mph N/A   Mostly Cloudy
9:21 AM 30.2 °F 17.4 °F 19.4 °F 64% 30.23 in 10.0 mi WNW 20.7 mph 31.1 mph N/A   Overcast
9:53 AM 30.9 °F 17.8 °F 21.0 °F 67% 30.28 in 10.0 mi NNW 23.0 mph 28.8 mph N/A   Mostly Cloudy
9:59 AM 28.4 °F 14.7 °F 21.2 °F 74% 30.26 in 2.0 mi NW 21.9 mph 32.2 mph 0.00 in Snow Light Snow
10:14 AM 28.4 °F 14.4 °F 21.2 °F 74% 30.27 in 5.0 mi NW 23.0 mph 28.8 mph 0.00 in Snow Light Snow
10:27 AM 30.2 °F 16.5 °F 17.6 °F 60% 30.28 in 9.0 mi NW 24.2 mph 32.2 mph 0.00 in   Mostly Cloudy
10:53 AM 32.0 °F 19.2 °F 16.0 °F 52% 30.32 in 10.0 mi NW 23.0 mph 32.2 mph 0.00 in   Partly Cloudy
11:53 AM 32.0 °F 20.5 °F 15.1 °F 50% 30.35 in 10.0 mi NW 18.4 mph 26.5 mph N/A   Mostly Cloudy
12:53 PM 32.0 °F 20.8 °F 12.0 °F 44% 30.38 in 10.0 mi NW 17.3 mph 29.9 mph N/A   Mostly Cloudy
1:53 PM 33.1 °F 21.5 °F 12.9 °F 43% 30.39 in 10.0 mi WNW 19.6 mph 31.1 mph N/A   Scattered Clouds
2:53 PM 30.9 °F 18.1 °F 10.0 °F 42% 30.41 in 10.0 mi WNW 21.9 mph 31.1 mph N/A   Partly Cloudy
3:53 PM 32.0 °F 20.1 °F 10.0 °F 40% 30.44 in 10.0 mi WNW 19.6 mph 29.9 mph N/A   Mostly Cloudy
4:53 PM 30.9 °F 18.1 °F 10.0 °F 42% 30.46 in 10.0 mi NW 21.9 mph 26.5 mph N/A   Overcast
5:53 PM 28.0 °F 16.5 °F 9.0 °F 45% 30.49 in 10.0 mi NW 15.0 mph - N/A   Partly Cloudy
6:53 PM 27.0 °F 15.2 °F 6.1 °F 41% 30.51 in 10.0 mi NW 15.0 mph 24.2 mph N/A   Scattered Clouds
7:53 PM 25.0 °F 14.2 °F 7.0 °F 46% 30.54 in 10.0 mi NNW 11.5 mph - N/A   Clear
8:53 PM 24.1 °F 16.0 °F 9.0 °F 53% 30.55 in 10.0 mi NNW 6.9 mph - N/A   Clear
9:53 PM 21.9 °F 15.7 °F 10.0 °F 60% 30.55 in 10.0 mi NNW 4.6 mph - N/A   Clear
10:53 PM 21.9 °F 15.7 °F 9.0 °F 58% 30.55 in 10.0 mi NNW 4.6 mph - N/A   Clear
11:53 PM 21.9 °F 13.4 °F 10.9 °F 63% 30.56 in 10.0 mi NNW 6.9 mph - N/A   Clear